{"data":{"norad_id":64575,"epoch":"2026-05-25T01:22:39.499104Z","epoch_age_seconds":74023,"freshness":"FRESH","line1":"1 64575U 25135AZ  26145.05740161  .00000947  00000+0  92719-4 0  9996","line2":"2 64575  97.7750 260.3476 0012824  16.4532 343.7102 14.94600440 50478","mean_motion":14.9460044,"eccentricity":0.0012824,"inclination_deg":97.775,"raan_deg":260.3476,"arg_perigee_deg":16.4532,"mean_anomaly_deg":343.7102,"bstar":9.2719e-5,"rev_number":5047,"period_min":96.346820291315,"perigee_km":574.68547565146,"apogee_km":592.54097262633,"semimajor_km":6961.7502241389,"source":"CELESTRAK","updated_at":"2026-05-25T13:38:04.622456Z"}}